This demonstration page uses our WeatherBlox Daily Observations layout. Learn more.

Left ArrowRight Arrow

Hourly Observations for November 17, 2016

Temp ( °F °C ) Dew Point ( °F °C ) Humidity (%) Winds ( mph kmh ) Pressure ( in mb ) Visibility ( mi km ) Precip ( " mm )
12:15 am 00:15 Clear 46 7.6 33 0.5 61 61 NNE 13 20 29.53 1000 10 16 N/A
12:35 am 00:35 Clear 45 7.2 33 0.3 62 62 NNE 10 17 29.53 1000 10 16 N/A
12:55 am 00:55 Clear 44 6.8 33 0.4 64 64 N 8 13 29.53 1000 10 16 N/A
1:15 am 01:15 Clear 43 6.1 33 0.5 68 68 N 9 15 29.53 1000 10 16 N/A
1:35 am 01:35 Clear 43 6 33 0.5 68 68 N 10 17 29.53 1000 10 16 N/A
1:55 am 01:55 Clear 42 5.8 33 0.5 69 69 NNE 12 19 29.53 1000 10 16 N/A
2:15 am 02:15 Clear 42 5.8 33 0.7 70 70 N 9 15 29.56 1001 10 16 N/A
2:35 am 02:35 Clear 42 5.7 33 0.7 71 71 N 9 15 29.56 1001 10 16 N/A
2:55 am 02:55 Clear 43 5.9 34 1 71 71 N 13 20 29.56 1001 10 16 N/A
3:15 am 03:15 Clear 42 5.8 34 1.2 73 73 N 13 20 29.56 1001 10 16 N/A
3:35 am 03:35 Clear 43 6 34 1.2 72 72 N 10 17 29.59 1002 10 16 N/A
3:55 am 03:55 Clear 43 6 35 1.5 73 73 N 14 22 29.56 1001 10 16 N/A
4:15 am 04:15 Clear 43 6.2 35 1.7 73 73 N 15 24 29.56 1001 10 16 N/A
4:35 am 04:35 Clear 44 6.5 35 1.8 72 72 N 13 20 29.56 1001 10 16 N/A
4:55 am 04:55 Clear 44 6.5 35 1.9 73 73 N 13 20 29.59 1002 10 16 N/A
5:15 am 05:15 Clear 44 6.5 35 1.8 72 72 N 13 20 29.59 1002 10 16 N/A
5:35 am 05:35 Clear 44 6.5 36 2 73 73 N 14 22 29.59 1002 10 16 N/A
5:55 am 05:55 Clear 44 6.5 35 1.8 72 72 N 17 28 29.59 1002 10 16 N/A
6:15 am 06:15 Clear 44 6.5 35 1.9 73 73 N 15 24 29.59 1002 10 16 N/A
6:35 am 06:35 Clear 44 6.6 36 2 73 73 N 13 20 29.59 1002 10 16 N/A
6:55 am 06:55 Clear 43 6.3 36 2 74 74 N 14 22 29.59 1002 10 16 N/A
7:15 am 07:15 Clear 43 6 35 1.9 75 75 N 13 20 29.59 1002 10 16 N/A
7:35 am 07:35 Sunny 43 6 35 1.9 75 75 N 10 17 29.62 1003 10 16 N/A
7:55 am 07:55 Sunny 42 5.8 35 1.8 76 76 N 10 17 29.62 1003 10 16 N/A
8:15 am 08:15 Sunny 43 6 35 1.8 75 75 N 12 19 29.65 1004 10 16 N/A
8:35 am 08:35 Sunny 43 6 35 1.5 73 73 N 13 20 29.62 1003 10 16 N/A
8:55 am 08:55 Sunny 43 6 35 1.5 73 73 N 18 30 29.62 1003 10 16 N/A
9:15 am 09:15 Sunny 43 6.2 35 1.4 72 72 N 16 26 29.62 1003 10 16 N/A
9:35 am 09:35 Sunny 44 6.7 35 1.4 69 69 N 17 28 29.62 1003 10 16 N/A
9:55 am 09:55 Sunny 45 7.2 35 1.5 67 67 N 18 30 29.62 1003 10 16 N/A
10:15 am 10:15 Sunny 45 7.2 34 1.2 66 66 NNE 18 30 29.62 1003 10 16 N/A
10:35 am 10:35 Sunny 45 7.2 34 1.1 66 66 N 21 33 29.62 1003 10 16 N/A
10:55 am 10:55 Sunny 46 7.7 34 1.2 64 64 N 14 22 29.65 1004 10 16 N/A
11:15 am 11:15 Sunny 46 7.8 34 1 62 62 N 16 26 29.65 1004 10 16 N/A
11:35 am 11:35 Sunny 46 7.9 34 0.9 62 62 N 17 28 29.62 1003 10 16 N/A
11:55 am 11:55 Sunny 46 8 34 1 62 62 N 15 24 29.65 1004 10 16 N/A
12:10 pm 12:10 Sunny 46 8 34 0.9 61 61 N 16 26 29.65 1004 10 16 N/A
12:35 pm 12:35 Sunny 47 8.1 34 0.9 61 61 N 13 20 29.65 1004 10 16 N/A
12:55 pm 12:55 Sunny 47 8.1 33 0.8 60 60 NNE 10 17 29.65 1004 10 16 N/A
1:15 pm 13:15 Sunny 46 7.9 33 0.6 60 60 N 16 26 29.62 1003 10 16 N/A
1:35 pm 13:35 Sunny 46 7.6 33 0.6 62 62 NNE 20 31 29.59 1002 10 16 N/A
1:55 pm 13:55 Sunny 46 7.8 33 0.8 62 62 NNE 21 33 29.56 1001 10 16 N/A
2:15 pm 14:15 Mostly Cloudy 46 8 33 0.7 60 60 NNE 17 28 29.62 1003 10 16 N/A
2:35 pm 14:35 Cloudy 45 7.3 33 0.3 61 61 NNE 14 22 29.62 1003 10 16 N/A
2:55 pm 14:55 Cloudy 46 7.6 33 0.7 62 62 N 18 30 29.62 1003 10 16 N/A
3:15 pm 15:15 Cloudy 45 7.3 33 0.8 64 64 NNE 18 30 29.62 1003 10 16 N/A
3:35 pm 15:35 Cloudy 45 7.2 33 0.7 64 64 NNE 20 31 29.62 1003 10 16 N/A
3:55 pm 15:55 Cloudy 45 7.1 33 0.8 65 65 NE 13 20 29.68 1005 10 16 N/A
4:15 pm 16:15 Cloudy 44 6.9 33 0.7 65 65 NNE 10 17 29.68 1005 10 16 N/A
4:35 pm 16:35 Cloudy 44 6.7 33 0.5 65 65 NNE 15 24 29.65 1004 10 16 N/A
4:55 pm 16:55 Cloudy 44 6.5 33 0.4 65 65 NNE 18 30 29.68 1005 10 16 N/A
5:15 pm 17:15 Cloudy 43 6.2 33 0.3 66 66 NNE 17 28 29.74 1007 10 16 N/A
5:35 pm 17:35 Cloudy 43 6 33 0.3 67 67 NNE 18 30 29.74 1007 10 16 N/A
5:55 pm 17:55 Cloudy 42 5.8 33 0.3 68 68 NNE 15 24 29.74 1007 10 16 N/A
6:15 pm 18:15 Cloudy 42 5.5 33 0.3 69 69 NNE 14 22 29.77 1008 10 16 N/A
6:35 pm 18:35 Cloudy 42 5.3 33 0.5 71 71 N 8 13 29.83 1010 10 16 N/A
6:55 pm 18:55 Cloudy with Haze 40 4.7 34 1.2 78 78 NNW 15 24 29.83 1010 5 8 N/A
7:15 pm 19:15 Cloudy with Light Rain 39 3.9 36 2.1 88 88 N 16 26 29.77 1008 5 8 N/A
7:35 pm 19:35 Cloudy with Drizzle 39 3.7 37 2.5 92 92 N 7 11 29.80 1009 10 16 N/A
7:55 pm 19:55 Cloudy with Nearby Thunderstorms 39 3.7 37 2.5 92 92 NNE 15 24 29.77 1008 7 11 N/A
8:15 pm 20:15 Cloudy with Light Rain 38 3.5 37 2.5 93 93 NNE 20 31 29.74 1007 5 8 0.03 0.76
8:35 pm 20:35 Cloudy with Rain 38 3.5 37 2.5 93 93 N 15 24 29.74 1007 7 11 0.03 0.76
8:55 pm 20:55 Cloudy with Heavy Rain 38 3.4 36 2.4 93 93 NNE 18 30 29.71 1006 7 11 0.05 1.27
9:15 pm 21:15 Cloudy with Light Rain 38 3.2 36 2.2 93 93 N 16 26 29.74 1007 7 11 0.04 1.02
9:35 pm 21:35 Cloudy with Rain 37 3 35 1.9 93 93 N 12 19 29.80 1009 7 11 0.07 1.78
9:55 pm 21:55 Cloudy with Light Rain 37 3 35 1.8 92 92 NNE 15 24 29.80 1009 10 16 0.08 2.03
10:15 pm 22:15 Cloudy with Light Rain 37 2.8 35 1.7 93 93 N 14 22 29.80 1009 10 16 N/A
10:35 pm 22:35 Cloudy with Drizzle 37 2.6 35 1.5 93 93 N 10 17 29.83 1010 10 16 N/A
10:55 pm 22:55 Cloudy 37 2.8 35 1.5 91 91 NNW 15 24 29.85 1011 10 16 N/A
11:15 pm 23:15 Cloudy with Light Rain 37 2.5 34 1.1 91 91 NNW 12 19 29.85 1011 7 11 N/A
11:35 pm 23:35 Cloudy with Rain 36 2.1 34 1 93 93 NNW 15 24 29.85 1011 5 8 N/A
11:55 pm 23:55 Cloudy with Rain 35 1.8 33 0.5 91 91 NNW 10 17 29.85 1011 3 5 0.01 0.25

Powered by AerisWeather